ICESAT-2

Last updated on Mon Sep 21 2026 00:02:46 GMT+0000 (Coordinated Universal Time)

1 43613U 18070A 26263.42708292 .00006066 00000+0 22028-3 0 9990 2 43613 92.0023 316.6992 0005973 101.9314 258.2605 15.28258534447000
UTC large
Height (km)
Speed (km/s)
/
Latitude / Longitude
Inclination (degrees)
Orbital Period (minutes)
Azimuth
Elevation
Range (km)
Doppler Factor

Next 0 passes for location: London (51.5072 / 0.1276)

No passes found over London.
ICESAT-2